Location: *
(58.7167°N, 26.1833°E)
Time: 10:57:23
(UTC+00:00)

CZ-4C R/B - Pass Details

Date: 25 August 2019
Orbit: 655 x 1347 km, 63.4° (Epoch: 22 September)

Event Time Altitude Azimuth Distance (km) Brightness Sun altitude
Exits shadow 19:58:03 23° 135° (SE) 1,697 3.2 -15.1°
Maximum altitude 19:59:13 25° 116° (ESE) 1,666 3.2 -15.2°
Drops below altitude 10° 20:04:02 10° 65° (ENE) 2,671 4.7 -15.6°
Sets 20:07:15 0° 53° (NE) 3,753 5.6 -15.8°
